Location: ????????
(55.0559°N, 39.1270°E)
Time: 08:50:47
(UTC+00:00)

ADEOS II - Pass Details

Date: 15 November 2025
Orbit: 794 x 794 km, 98.8° (Epoch: 14 December)

Event Time Altitude Azimuth Distance (km) Brightness Sun altitude
Rises 00:15:32 0° 17° (NNE) 3,313 5.8 -39.2°
Reaches altitude 10° 00:17:54 10° 21° (NNE) 2,378 5.0 -38.9°
Enters shadow 00:19:09 18° 24° (NNE) 1,898 4.4 -38.7°
